KRGK

Details ICAO KRGK
Name RED WING RGNL
Region United States
Timezone America/Chicago (UTC-5.0)
Plans Departing 4
Arriving 7
Stats Elevation 780 ft / 238 m (AMSL)
Location 44.589354° -92.484970°
Runways 1
Magnetic Variation 0.415° W
Sunrise 2018-05-20 10:38:22 UTC / 2018-05-20 05:38:22 Local
Sunset 2018-05-21 01:37:27 UTC / 2018-05-20 20:37:27 Local
Advertisement - Login to hide

Runways

ID Width Length Bearing (true) Bearing (mag) Surface Threshold Offset Overrun Length
09 100 ft / 30 m 4,998 ft / 1,523 m 93.05° 93.47° Asphalt 0 ft / 0 m 0 ft / 0 m
27 100 ft / 30 m 4,998 ft / 1,523 m 273.06° 273.48° Asphalt 0 ft / 0 m 0 ft / 0 m

Approach Navaids

Runway Type Ident Frequency Range Bearing (true) Bearing (mag) Slope Elevation
09 Localiser IRGK 110.10 MHz 18 nm / 33 km 93.06° 93.47° - 762 ft / 232 m (AMSL)
09 Glidescope IRGK 110.10 MHz 10 nm / 19 km 93.06° 93.47° 3.00° 777 ft / 237 m (AMSL)

Map

Weather


0- 5 10 15 20 25 30 35+ Temperature / ° C

Clouds and Precipitation
Forecast for 2018-05-20 18:00 UTC. Updated 5 hours ago

Ground ~20,000 ft ~40,000 ft Winds

METAR

KRGK 202155Z AUTO 15008KT 10SM CLR 22/02 A3014 RMK AO2

TAF

Not found

Frequencies

Recorded 119.25 MHz AWOS 3
Unicom 123.05 MHz CTAF/UNICOM
Warning: Do not use this data for real-world aviation or navigation. No guarantee of current accuracy is given.